RADUGA 5 [-]

Last updated on Nov. 11, 2019, 4:17 a.m. UTC

1 11343U 79035A   19314.89515726 -.00000062  00000-0  00000+0 0  9995
2 11343  11.0036 310.8746 0002491 103.5177  28.1052  1.00294558105158
UTC
Height (km)
Latitude
Longitude
Inclination
Orbital Period
UTC large
Height (km)
Speed (km/s)
/
Latitude / Longitude
Inclination (degrees)
Orbital Period (minutes)
Azimuth
Elevation
Range (km)
Doppler Factor
iOS Compass Heading
iOS Angle

Next 30 passes for location: Hong Kong

Rise time Rise Azimuth (degrees) Set time Set Azimuth (degrees) Duration Max altitude (degrees)

No matching passes for this satellites